timestamp,surface_pressure_avg,surface_temp_avg,battery_voltage,lat,long
2021-10-06 00:09:01+00:00,375.653,14.0,12.73,47.84626,-54.09684
2021-10-06 00:19:01+00:00,369.0662,14.0,12.73,47.84626,-54.09684
2021-10-06 00:29:01+00:00,363.7446,14.0,12.73,47.84626,-54.09684
2021-10-06 00:39:01+00:00,358.1198,14.0,12.73,47.84626,-54.09684
2021-10-06 00:49:01+00:00,352.69800000000015,14.0,12.73,47.84626,-54.09684
2021-10-06 00:59:01+00:00,343.3812,14.0,12.73,47.84626,-54.09684
2021-10-06 01:09:01+00:00,334.4113,14.0,12.73,47.84626,-54.09684
2021-10-06 01:19:01+00:00,328.2929,14.0,12.73,47.84626,-54.09684
2021-10-06 01:29:01+00:00,322.268,14.0,12.73,47.84626,-54.09684
2021-10-06 01:39:01+00:00,311.023,14.0,12.73,47.84626,-54.09684
2021-10-06 01:49:01+00:00,302.5813,14.0,12.73,47.84626,-54.09684
2021-10-06 01:59:01+00:00,295.798,14.0,12.73,47.84626,-54.09684
2021-10-06 02:09:01+00:00,285.0347,14.0,12.73,47.84626,-54.09684
2021-10-06 02:19:01+00:00,274.0114,13.9,12.73,47.84626,-54.09684
2021-10-06 02:29:01+00:00,267.7398,13.93,12.73,47.84626,-54.09684
2021-10-06 02:39:01+00:00,259.6898,13.9,12.73,47.84626,-54.09684
2021-10-06 02:49:01+00:00,247.7164,13.89,12.73,47.84626,-54.09684
2021-10-06 02:59:01+00:00,238.0098,13.8,12.73,47.84626,-54.09684
2021-10-06 03:09:01+00:00,231.2281,13.8,12.73,47.84626,-54.09684
2021-10-06 03:19:01+00:00,222.6131,13.8,12.65,47.84626,-54.09684
2021-10-06 03:29:01+00:00,212.6531,13.8,12.65,47.84626,-54.09684
2021-10-06 03:39:01+00:00,207.1481,13.79,12.65,47.84626,-54.09684
2021-10-06 03:49:01+00:00,202.3515,13.8,12.65,47.84626,-54.09684
2021-10-06 03:59:01+00:00,193.2681,13.8,12.65,47.84626,-54.09684
2021-10-06 04:09:01+00:00,186.8915,13.74,12.65,47.84626,-54.09684
2021-10-06 04:19:01+00:00,187.9749,13.7,12.65,47.84626,-54.09684
2021-10-06 04:29:01+00:00,185.5881,13.75,12.65,47.84626,-54.09684
2021-10-06 04:39:01+00:00,178.5015,13.7,12.65,47.84626,-54.09684
2021-10-06 04:49:01+00:00,175.9599,13.7,12.65,47.84626,-54.09684
2021-10-06 04:59:01+00:00,174.7848,13.7,12.65,47.84626,-54.09684
2021-10-06 05:09:01+00:00,173.7981,13.7,12.65,47.84626,-54.09684
2021-10-06 05:19:00+00:00,175.6265,13.76,12.65,47.84626,-54.09684
2021-10-06 05:29:00+00:00,178.0664,13.8,12.65,47.84626,-54.09684
2021-10-06 05:39:00+00:00,178.2497,13.82,12.65,47.84626,-54.09684
2021-10-06 05:49:00+00:00,178.9831,13.86,12.65,47.84626,-54.09684
2021-10-06 05:59:00+00:00,180.2064,13.86,12.65,47.84626,-54.09684
2021-10-06 06:09:00+00:00,182.5731,13.87,12.65,47.84626,-54.09684
2021-10-06 06:19:00+00:00,187.9331,13.88,12.65,47.84626,-54.09684
2021-10-06 06:29:00+00:00,192.5047,13.89,12.65,47.84626,-54.09684
2021-10-06 06:39:00+00:00,194.5364,13.89,12.65,47.84626,-54.09684
2021-10-06 06:49:00+00:00,197.2898,13.89,12.65,47.84626,-54.09684
2021-10-06 06:59:00+00:00,203.9115,13.9,12.65,47.84626,-54.09684
2021-10-06 07:09:00+00:00,210.8214,13.9,12.65,47.84626,-54.09684
2021-10-06 07:19:01+00:00,216.0398,13.9,12.65,47.84626,-54.09684
2021-10-06 07:29:01+00:00,220.6348,13.9,12.65,47.84626,-54.09684
2021-10-06 07:39:01+00:00,225.8631,13.9,12.65,47.84626,-54.09684
2021-10-06 07:49:01+00:00,232.3064,13.9,12.65,47.84626,-54.09684
2021-10-06 07:59:01+00:00,238.0648,13.9,12.65,47.84626,-54.09684
2021-10-06 08:09:01+00:00,245.8931,13.9,12.65,47.84626,-54.09684
2021-10-06 08:19:00+00:00,254.7547,13.9,12.57,47.84626,-54.09684
2021-10-06 08:29:00+00:00,262.1664,13.9,12.57,47.84626,-54.09684
2021-10-06 08:39:00+00:00,267.9114,13.94,12.57,47.84626,-54.09684
2021-10-06 08:49:00+00:00,275.5731,13.96,12.57,47.84626,-54.09684
2021-10-06 08:59:00+00:00,282.8397,13.96,12.57,47.84626,-54.09684
2021-10-06 09:09:00+00:00,291.138,13.98,12.57,47.84626,-54.09684
2021-10-06 09:19:01+00:00,299.3413,13.99,12.57,47.84626,-54.09684
2021-10-06 09:29:01+00:00,307.7397,13.97,12.57,47.84626,-54.09684
2021-10-06 09:39:01+00:00,313.243,13.98,12.57,47.84626,-54.09684
2021-10-06 09:49:01+00:00,321.783,13.99,12.57,47.84626,-54.09684
2021-10-06 09:59:01+00:00,332.7630000000001,13.99,12.57,47.84626,-54.09684
2021-10-06 10:09:01+00:00,337.9982,13.99,12.57,47.84626,-54.09684
2021-10-06 10:19:01+00:00,339.6896,13.99,13.21,47.84626,-54.09684
2021-10-06 10:29:01+00:00,345.3146,13.94,13.21,47.84626,-54.09684
2021-10-06 10:39:01+00:00,353.0797,13.9,13.21,47.84626,-54.09684
2021-10-06 10:49:01+00:00,355.9814,13.92,13.21,47.84626,-54.09684
2021-10-06 10:59:01+00:00,357.8581,13.97,13.21,47.84626,-54.09684
2021-10-06 11:09:01+00:00,361.9729,13.99,13.21,47.84626,-54.09684
2021-10-06 11:19:01+00:00,366.2861,13.99,14.48,47.84626,-54.09684
2021-10-06 11:29:01+00:00,366.1045,14.0,14.48,47.84626,-54.09684
2021-10-06 11:39:01+00:00,364.843,14.0,14.48,47.84626,-54.09684
2021-10-06 11:49:01+00:00,364.7527,14.0,14.48,47.84626,-54.09684
2021-10-06 11:59:01+00:00,365.3496,13.9,14.48,47.84626,-54.09684
2021-10-06 12:09:01+00:00,361.7229,13.9,14.48,47.84626,-54.09684
2021-10-06 12:19:01+00:00,357.8629,13.9,14.56,47.84626,-54.09684
2021-10-06 12:29:01+00:00,356.1031,13.9,14.56,47.84626,-54.09684
2021-10-06 12:39:01+00:00,352.028,13.9,14.56,47.84626,-54.09684
2021-10-06 12:49:01+00:00,344.2479,13.9,14.56,47.84626,-54.09684
2021-10-06 12:59:01+00:00,336.7614,13.9,14.56,47.84626,-54.09684
2021-10-06 13:09:01+00:00,335.6413,13.9,14.56,47.84626,-54.09684
2021-10-06 13:19:01+00:00,331.24300000000005,13.9,14.56,47.84626,-54.09684
2021-10-06 13:29:01+00:00,321.1497,13.9,14.56,47.84626,-54.09684
2021-10-06 13:39:01+00:00,313.743,13.9,14.56,47.84626,-54.09684
2021-10-06 13:49:01+00:00,307.2897,13.9,14.56,47.84626,-54.09684
2021-10-06 13:59:01+00:00,297.958,13.9,14.56,47.84626,-54.09684
2021-10-06 14:09:01+00:00,286.7448,13.9,14.56,47.84626,-54.09684
2021-10-06 14:19:01+00:00,277.428,13.9,14.56,47.84626,-54.09684
2021-10-06 14:29:01+00:00,268.5947,13.9,14.56,47.84626,-54.09684
2021-10-06 14:39:01+00:00,259.1331,13.9,14.56,47.84626,-54.09684
2021-10-06 14:49:01+00:00,248.2281,13.9,14.56,47.84626,-54.09684
2021-10-06 14:59:01+00:00,239.1264,13.9,14.56,47.84626,-54.09684
2021-10-06 15:09:01+00:00,230.7914,13.9,14.56,47.84626,-54.09684
2021-10-06 15:19:01+00:00,222.1131,13.9,14.48,47.84626,-54.09684
2021-10-06 15:29:01+00:00,212.7465,13.9,14.48,47.84626,-54.09684
2021-10-06 15:39:01+00:00,204.7848,13.9,14.48,47.84626,-54.09684
2021-10-06 15:49:01+00:00,198.6915,13.9,14.48,47.84626,-54.09684
2021-10-06 15:59:01+00:00,191.6498,13.9,14.48,47.84626,-54.09684
2021-10-06 16:09:01+00:00,183.2098,13.9,14.48,47.84626,-54.09684
2021-10-06 16:19:01+00:00,179.1732,13.9,14.24,47.84626,-54.09684
2021-10-06 16:29:01+00:00,177.5315,13.95,14.24,47.84626,-54.09684
2021-10-06 16:39:01+00:00,170.6148,13.99,14.24,47.84626,-54.09684
2021-10-06 16:49:01+00:00,164.1965,13.99,14.24,47.84626,-54.09684
2021-10-06 16:59:01+00:00,165.7965,13.99,14.24,47.84626,-54.09684
2021-10-06 17:09:01+00:00,166.1048,13.99,14.24,47.84626,-54.09684
2021-10-06 17:19:01+00:00,160.3532,13.99,14.0,47.84626,-54.09684
2021-10-06 17:29:01+00:00,158.3882,13.98,14.0,47.84626,-54.09684
2021-10-06 17:39:01+00:00,161.4849,13.97,14.0,47.84626,-54.09684
2021-10-06 17:49:01+00:00,160.9849,13.97,14.0,47.84626,-54.09684
2021-10-06 17:59:01+00:00,161.2032,13.99,14.0,47.84626,-54.09684
2021-10-06 18:09:01+00:00,164.9398,13.99,14.0,47.84626,-54.09684
2021-10-06 18:19:00+00:00,167.0015,14.0,13.92,47.84626,-54.09684
2021-10-06 18:29:00+00:00,168.6115,14.0,13.92,47.84626,-54.09684
2021-10-06 18:39:00+00:00,172.7615,14.0,13.92,47.84626,-54.09684
2021-10-06 18:49:00+00:00,178.9598,14.0,13.92,47.84626,-54.09684
2021-10-06 18:59:00+00:00,185.5665,14.0,13.92,47.84626,-54.09684
2021-10-06 19:09:00+00:00,190.6181,14.0,13.92,47.84626,-54.09684
2021-10-06 19:19:01+00:00,196.4581,14.03,13.76,47.84626,-54.09684
2021-10-06 19:29:01+00:00,201.6331,14.04,13.76,47.84626,-54.09684
2021-10-06 19:39:01+00:00,206.7014,14.05,13.76,47.84626,-54.09684
2021-10-06 19:49:01+00:00,214.1165,14.06,13.76,47.84626,-54.09684
2021-10-06 19:59:01+00:00,222.0714,14.06,13.76,47.84626,-54.09684
2021-10-06 20:09:01+00:00,227.6381,14.06,13.76,47.84626,-54.09684
2021-10-06 20:19:01+00:00,234.3198,14.05,13.53,47.84626,-54.09684
2021-10-06 20:29:01+00:00,243.4214,14.03,13.53,47.84626,-54.09684
2021-10-06 20:39:01+00:00,251.3931,14.0,13.53,47.84626,-54.09684
2021-10-06 20:49:01+00:00,256.1581,14.0,13.53,47.84626,-54.09684
2021-10-06 20:59:01+00:00,262.043,14.0,13.53,47.84626,-54.09684
2021-10-06 21:09:01+00:00,271.1064,14.02,13.53,47.84626,-54.09684
2021-10-06 21:19:01+00:00,278.5497,14.02,13.21,47.84626,-54.09684
2021-10-06 21:29:01+00:00,285.8914,14.03,13.21,47.84626,-54.09684
2021-10-06 21:39:01+00:00,297.3347,14.05,13.21,47.84626,-54.09684
2021-10-06 21:49:01+00:00,306.478,14.07,13.21,47.84626,-54.09684
2021-10-06 21:59:01+00:00,312.5847,14.09,13.21,47.84626,-54.09684
2021-10-06 22:09:01+00:00,321.0464,14.09,13.21,47.84626,-54.09684
2021-10-06 22:19:01+00:00,333.3413,14.1,12.81,47.84626,-54.09684
2021-10-06 22:29:01+00:00,340.7845,14.09,12.81,47.84626,-54.09684
2021-10-06 22:39:01+00:00,345.1595,14.0,12.81,47.84626,-54.09684
2021-10-06 22:49:01+00:00,351.1279,14.0,12.81,47.84626,-54.09684
2021-10-06 22:59:01+00:00,356.1946,14.0,12.81,47.84626,-54.09684
2021-10-06 23:09:01+00:00,357.9696,14.0,12.81,47.84626,-54.09684
2021-10-06 23:19:01+00:00,362.0113,14.0,12.73,47.84626,-54.09684
2021-10-06 23:29:01+00:00,366.713,14.0,12.73,47.84626,-54.09684
2021-10-06 23:39:01+00:00,367.5714,14.0,12.73,47.84626,-54.09684
2021-10-06 23:49:01+00:00,367.4763,14.0,12.73,47.84626,-54.09684
2021-10-06 23:59:01+00:00,369.8713,14.0,12.73,47.84626,-54.09684
